• In Österreich
  • Länderverzeichnis
  • Für 7 Tage
  • Wassertemperatur
  • Satellitenkarten
  • Wetterkarte
  • News
  • Widgets
  • user-avatar
    Anmelden

    Stündliche Wetter Eremkino

    Heute, 20 August, Montag

    Zeit Temperatur Niederschläge Wind Luftdruck Luftfeuchtigkeit
    00:00 +16°C° 0 mm 2 m/S 748 mmHg 96%
    01:00 +16°C° 0 mm 2 m/S 748 mmHg 95%
    02:00 +15°C° 0 mm 2 m/S 747 mmHg 95%
    03:00 +15°C° 0 mm 2 m/S 747 mmHg 95%
    04:00 +15°C° 0 mm 2 m/S 747 mmHg 95%
    05:00 +15°C° 0 mm 2 m/S 747 mmHg 96%
    06:00 +16°C° 0 mm 2 m/S 747 mmHg 93%
    07:00 +17°C° 0 mm 2 m/S 747 mmHg 91%
    08:00 +18°C° 0 mm 3 m/S 747 mmHg 88%
    09:00 +19°C° 0,2 mm 3 m/S 747 mmHg 85%
    10:00 +20°C° 0,2 mm 3 m/S 747 mmHg 82%
    11:00 +21°C° 0,2 mm 3 m/S 747 mmHg 79%
    12:00 +21°C° 0,5 mm 3 m/S 747 mmHg 79%
    13:00 +21°C° 0,5 mm 3 m/S 747 mmHg 79%
    14:00 +22°C° 0,5 mm 3 m/S 747 mmHg 80%
    15:00 +21°C° 0,4 mm 3 m/S 746 mmHg 82%
    16:00 +21°C° 0,4 mm 2 m/S 746 mmHg 84%
    17:00 +21°C° 0,4 mm 2 m/S 745 mmHg 86%
    18:00 +20°C° 0 mm 2 m/S 745 mmHg 88%
    19:00 +19°C° 0 mm 2 m/S 745 mmHg 90%
    20:00 +18°C° 0 mm 2 m/S 744 mmHg 93%
    21:00 +18°C° 0 mm 2 m/S 744 mmHg 92%
    22:00 +18°C° 0 mm 3 m/S 743 mmHg 92%
    23:00 +18°C° 0 mm 3 m/S 743 mmHg 91%

    Morgen, 21 August, Dienstag

    Zeit Temperatur Niederschläge Wind Luftdruck Luftfeuchtigkeit
    00:00 +18°C° 0 mm 4 m/S 742 mmHg 91%
    01:00 +18°C° 0 mm 4 m/S 742 mmHg 91%
    02:00 +18°C° 0 mm 4 m/S 741 mmHg 91%
    03:00 +18°C° 0,1 mm 4 m/S 741 mmHg 90%
    04:00 +17°C° 0,1 mm 5 m/S 740 mmHg 90%
    05:00 +17°C° 0,1 mm 5 m/S 739 mmHg 89%
    06:00 +17°C° 0,6 mm 5 m/S 739 mmHg 90%
    07:00 +17°C° 0,6 mm 5 m/S 739 mmHg 91%
    08:00 +17°C° 0,6 mm 6 m/S 738 mmHg 92%
    09:00 +19°C° 0,5 mm 6 m/S 739 mmHg 88%
    10:00 +19°C° 0,5 mm 6 m/S 739 mmHg 84%
    11:00 +19°C° 0,5 mm 6 m/S 739 mmHg 80%
    12:00 +20°C° 0,1 mm 6 m/S 739 mmHg 73%
    13:00 +20°C° 0,1 mm 6 m/S 740 mmHg 66%
    14:00 +20°C° 0,1 mm 6 m/S 740 mmHg 59%
    15:00 +20°C° 0 mm 6 m/S 740 mmHg 60%
    16:00 +19°C° 0 mm 5 m/S 741 mmHg 60%
    17:00 +17°C° 0 mm 5 m/S 741 mmHg 61%
    18:00 +17°C° 0 mm 4 m/S 742 mmHg 66%
    19:00 +14°C° 0 mm 4 m/S 742 mmHg 71%
    20:00 +12°C° 0 mm 3 m/S 742 mmHg 77%
    21:00 +12°C° 0 mm 3 m/S 743 mmHg 79%
    22:00 +11°C° 0 mm 3 m/S 743 mmHg 81%
    23:00 +11°C° 0 mm 3 m/S 743 mmHg 83%

    übermorgen, 22 August, Mittwoch

    Zeit Temperatur Niederschläge Wind Luftdruck Luftfeuchtigkeit
    00:00 +11°C° 0 mm 3 m/S 744 mmHg 82%
    01:00 +11°C° 0 mm 3 m/S 744 mmHg 82%
    02:00 +10°C° 0 mm 4 m/S 744 mmHg 81%
    03:00 +10°C° 0 mm 4 m/S 744 mmHg 82%
    04:00 +10°C° 0 mm 4 m/S 745 mmHg 83%
    05:00 +10°C° 0 mm 4 m/S 745 mmHg 84%
    06:00 +11°C° 0 mm 4 m/S 746 mmHg 79%
    07:00 +12°C° 0 mm 4 m/S 746 mmHg 75%
    08:00 +14°C° 0 mm 5 m/S 747 mmHg 70%
    09:00 +15°C° 0 mm 5 m/S 747 mmHg 64%
    10:00 +16°C° 0 mm 5 m/S 747 mmHg 58%
    11:00 +17°C° 0 mm 5 m/S 748 mmHg 52%
    12:00 +17°C° 0 mm 5 m/S 748 mmHg 51%
    13:00 +17°C° 0 mm 5 m/S 748 mmHg 49%
    14:00 +17°C° 0 mm 5 m/S 749 mmHg 47%
    15:00 +17°C° 0 mm 5 m/S 749 mmHg 49%
    16:00 +18°C° 0 mm 4 m/S 749 mmHg 52%
    17:00 +17°C° 0 mm 3 m/S 750 mmHg 55%
    18:00 +14°C° 0 mm 3 m/S 750 mmHg 61%
    19:00 +13°C° 0 mm 3 m/S 750 mmHg 66%
    20:00 +12°C° 0 mm 2 m/S 751 mmHg 72%
    21:00 +10°C° 0 mm 2 m/S 751 mmHg 75%
    22:00 +9°C° 0 mm 2 m/S 752 mmHg 78%
    23:00 +9°C° 0 mm 2 m/S 752 mmHg 80%

    23 August, Donnerstag

    Zeit Temperatur Niederschläge Wind Luftdruck Luftfeuchtigkeit
    00:00 +8°C° 0 mm 2 m/S 752 mmHg 82%
    01:00 +8°C° 0 mm 2 m/S 753 mmHg 83%
    02:00 +7°C° 0 mm 2 m/S 753 mmHg 85%
    03:00 +7°C° 0 mm 2 m/S 753 mmHg 86%
    04:00 +7°C° 0 mm 2 m/S 753 mmHg 86%
    05:00 +7°C° 0 mm 2 m/S 754 mmHg 87%
    06:00 +9°C° 0 mm 2 m/S 754 mmHg 80%
    07:00 +12°C° 0 mm 2 m/S 754 mmHg 72%
    08:00 +14°C° 0 mm 2 m/S 754 mmHg 65%
    09:00 +16°C° 0 mm 2 m/S 754 mmHg 60%
    10:00 +17°C° 0 mm 2 m/S 754 mmHg 54%
    11:00 +19°C° 0 mm 2 m/S 753 mmHg 49%
    12:00 +19°C° 0 mm 2 m/S 753 mmHg 48%
    13:00 +20°C° 0 mm 2 m/S 753 mmHg 47%
    14:00 +20°C° 0 mm 3 m/S 753 mmHg 46%
    15:00 +20°C° 0 mm 2 m/S 753 mmHg 51%
    16:00 +20°C° 0 mm 2 m/S 752 mmHg 55%
    17:00 +19°C° 0 mm 2 m/S 752 mmHg 60%
    18:00 +17°C° 0 mm 2 m/S 752 mmHg 65%
    19:00 +15°C° 0 mm 2 m/S 752 mmHg 71%
    20:00 +13°C° 0 mm 2 m/S 752 mmHg 77%
    21:00 +13°C° 0 mm 2 m/S 752 mmHg 79%
    22:00 +12°C° 0 mm 2 m/S 752 mmHg 81%
    23:00 +10°C° 0 mm 2 m/S 752 mmHg 83%

    24 August, Freitag

    Zeit Temperatur Niederschläge Wind Luftdruck Luftfeuchtigkeit
    00:00 +10°C° 0 mm 2 m/S 752 mmHg 85%
    01:00 +10°C° 0 mm 2 m/S 752 mmHg 86%
    02:00 +9°C° 0 mm 2 m/S 752 mmHg 88%
    03:00 +9°C° 0 mm 2 m/S 752 mmHg 89%
    04:00 +9°C° 0 mm 2 m/S 752 mmHg 90%
    05:00 +9°C° 0 mm 2 m/S 752 mmHg 91%
    06:00 +12°C° 0 mm 2 m/S 752 mmHg 84%
    07:00 +14°C° 0 mm 2 m/S 752 mmHg 77%
    08:00 +16°C° 0 mm 2 m/S 752 mmHg 69%
    09:00 +18°C° 0 mm 3 m/S 752 mmHg 64%
    10:00 +19°C° 0 mm 3 m/S 751 mmHg 58%
    11:00 +21°C° 0 mm 4 m/S 751 mmHg 52%
    12:00 +21°C° 0 mm 4 m/S 751 mmHg 51%
    13:00 +22°C° 0 mm 4 m/S 751 mmHg 50%
    14:00 +23°C° 0 mm 4 m/S 750 mmHg 49%
    15:00 +22°C° 0 mm 3 m/S 750 mmHg 53%
    16:00 +22°C° 0 mm 3 m/S 750 mmHg 58%
    17:00 +21°C° 0 mm 2 m/S 749 mmHg 62%
    18:00 +19°C° 0 mm 2 m/S 749 mmHg 68%
    19:00 +17°C° 0 mm 2 m/S 749 mmHg 75%
    20:00 +15°C° 0 mm 2 m/S 749 mmHg 81%
    21:00 +15°C° 0 mm 2 m/S 749 mmHg 83%
    22:00 +14°C° 0 mm 2 m/S 749 mmHg 85%
    23:00 +14°C° 0 mm 2 m/S 749 mmHg 88%

    25 August, Samstag

    Zeit Temperatur Niederschläge Wind Luftdruck Luftfeuchtigkeit
    00:00 +13°C° 0 mm 2 m/S 749 mmHg 88%
    01:00 +13°C° 0 mm 2 m/S 749 mmHg 89%
    02:00 +13°C° 0 mm 2 m/S 749 mmHg 90%
    03:00 +12°C° 0 mm 2 m/S 749 mmHg 89%
    04:00 +11°C° 0 mm 3 m/S 749 mmHg 89%
    05:00 +11°C° 0 mm 3 m/S 749 mmHg 88%
    06:00 +13°C° 0 mm 3 m/S 749 mmHg 82%
    07:00 +16°C° 0 mm 3 m/S 749 mmHg 75%
    08:00 +18°C° 0 mm 3 m/S 749 mmHg 68%
    09:00 +20°C° 0 mm 4 m/S 749 mmHg 62%
    10:00 +21°C° 0 mm 4 m/S 749 mmHg 57%
    11:00 +23°C° 0 mm 4 m/S 749 mmHg 51%
    12:00 +25°C° 0 mm 4 m/S 749 mmHg 49%
    13:00 +25°C° 0 mm 4 m/S 748 mmHg 47%
    14:00 +26°C° 0 mm 4 m/S 748 mmHg 45%
    15:00 +25°C° 0 mm 4 m/S 748 mmHg 50%
    16:00 +24°C° 0 mm 3 m/S 748 mmHg 55%
    17:00 +24°C° 0 mm 2 m/S 747 mmHg 60%
    18:00 +21°C° 0 mm 2 m/S 747 mmHg 66%
    19:00 +19°C° 0 mm 2 m/S 747 mmHg 72%
    20:00 +17°C° 0 mm 3 m/S 747 mmHg 78%
    21:00 +16°C° 0 mm 3 m/S 747 mmHg 78%
    22:00 +16°C° 0 mm 3 m/S 747 mmHg 78%
    23:00 +14°C° 0 mm 3 m/S 748 mmHg 79%
    Mehr zeigen